Vertical_Velocity
-0 -0 -2 -0 -2 1 -5 -3 -3 -1 -1 1 -2 -2 2 -1 -3 -3 -3 -1 3 2 -4 -3 -1 -0 2 3 1 2 0 -0 -0 1 2 -1 -2 -0 -0 2 1 1 0
-1 -2 -1 -1 -1 -1 3 -1 -2 -4 -4 -2 0 -1 -2 -2 -1 -1 -2 -2 2 2 4 -3 -2 1 3 2 3 2 1 2 1 0 2 1 -1 -2 1 -1 0 3 0
-1 -0 -1 1 -2 -3 -4 1 1 -2 -3 -2 -2 -1 -2 0 -1 -0 -1 -4 -3 1 3 4 -1 -3 0 2 -0 1 0 1 1 1 -1 1 -0 1 -1 -1 -2 -0 3
-0 -0 -3 -5 -1 0 0 -3 -2 0 -0 -3 -4 -2 -0 -0 1 -1 -0 0 -1 -3 -0 2 4 0 -3 -0 3 1 3 1 1 0 0 -0 -2 1 -0 -0 -1 -1 0
-1 -1 -2 -2 -1 -2 -5 -1 -1 -2 -3 -2 -3 -4 -3 0 -2 1 1 1 -0 0 -2 0 3 3 2 -2 -0 2 4 3 3 2 0 2 -1 -3 0 1 4 -2 -1
-1 -1 -2 -3 -0 -2 -2 -4 -2 -3 -3 -4 -3 -4 -2 1 3 -1 1 2 2 2 1 -0 1 2 4 5 2 -0 1 2 -0 1 3 -2 0 2 0 -1 1 5 0
-2 -3 -0 -0 -1 -2 -5 -5 -4 -3 -2 -2 -6 -2 0 0 4 1 0 3 1 5 1 0 -0 2 5 1 6 2 1 2 5 2 4 2 1 1 0 6 4 1 2
0 -1 -3 -1 0 -0 -1 -4 -6 -4 -3 -4 -4 -4 -8 4 -3 2 3 3 -1 -0 2 2 2 2 3 6 -1 3 1 -0 -2 2 4 -0 12 5 1 3 1 -2 -1
-2 -1 -4 -2 -1 -0 -1 -2 -4 -6 -4 1 -2 -2 -2 -2 -14 3 -1 -1 -4 -1 -0 1 0 1 -1 4 2 -2 4 -1 -1 3 -0 1 5 6 12 2 10 3 -4
-1 3 -5 -1 -3 -0 -1 -2 -1 -3 -4 -3 -3 1 5 3 6 -7 -9 -1 -2 1 2 2 2 1 1 1 3 -3 -0 2 -3 -1 1 5 -1 7 16 -8 -4 7 12
-4 -2 -2 -2 -2 1 -4 0 3 -5 -4 -0 -1 -4 2 3 5 6 -6 -12 6 2 2 7 3 4 2 -1 1 -3 0 -0 -1 -1 1 3 -0 12 10 9 25 37 -24
2 -4 -1 -1 -1 -2 -0 -2 -1 -1 -5 -4 -2 -2 -2 -2 -2 2 -0 -3 -1 6 4 7 2 1 2 2 -1 -3 0 -2 -1 -1 -1 1 -1 9 0 5 -0 -41 -19
1 -0 -3 -2 -1 1 -4 -1 0 -1 0 0 -1 -1 -2 1 -2 -2 1 2 -1 -3 7 2 0 0 2 5 2 -2 -4 -1 -1 3 0 -2 -1 2 12 -6 5 4 -7
-0 -1 -2 1 -1 -3 -3 -1 -0 -0 1 -2 -2 -0 1 -0 -2 -0 -1 0 -5 6 1 -1 2 -1 1 2 2 3 -1 0 1 -2 1 3 -1 4 7 -5 11 9 13
0 -2 -1 1 -2 -3 -2 -0 -2 -2 -2 -2 -1 -1 -1 1 4 1 2 1 1 1 -1 -3 -3 0 2 2 0 1 1 -0 -9 1 -0 1 -1 -1 8 9 7 20 10
-2 -3 -1 -2 -2 -2 -1 -1 -0 -1 -1 -2 -2 -1 -1 -2 2 2 0 1 2 2 7 1 1 1 2 0 1 2 -0 3 1 0 -3 3 0 2 5 -0 4 7 -4
-4 -2 -1 -1 -1 0 -1 -2 -0 -1 -1 -1 0 -2 1 -0 0 -1 1 -1 2 -1 2 2 1 3 2 0 2 2 1 1 1 1 1 -3 6 1 3 4 11 8 8
-2 -1 -1 1 0 -1 0 0 -0 -1 -0 -1 -2 0 -2 1 -0 0 -1 -0 -1 2 1 -2 0 -1 0 0 2 3 1 1 -0 1 1 5 6 4 -4 -8 15 0 1
-1 -0 1 1 -1 -1 -1 -0 -1 -2 -0 -1 1 -0 -1 1 -2 -2 -2 -1 -2 -0 -1 1 1 1 -0 3 2 4 -0 2 3 5 1 2 -2 2 -3 6 -0 -0 -3
-0 0 1 1 -0 -1 -1 -2 -2 -2 -1 -1 -0 0 -1 -0 -0 0 1 -0 -0 0 2 0 1 1 -1 -2 -1 0 1 1 -0 0 2 1 0 -0 -3 -1 6 -5 -10
1 0 0 0 -1 -0 -1 -1 -1 -0 -1 -0 -1 -2 -2 -1 -2 -1 -2 -1 -0 -1 -1 -0 -1 0 -0 -2 -5 -2 -0 1 -1 -1 -1 0 3 1 1 1 3 2 4
0 0 0 -0 -1 -1 -2 -1 -2 -1 -1 -1 -2 -2 -1 -2 -3 -2 -3 -3 -3 -2 -2 -1 -0 -3 -0 -0 0 -1 -2 -1 -1 -1 -3 -0 -1 -0 2 -1 -3 -3 -2
0 0 0 -0 0 -1 -1 -1 -1 -1 -1 -1 -2 -2 -2 -1 -1 -1 -1 -1 -1 -2 -4 -0 -2 -4 -2 -0 -2 -0 -1 -2 -1 1 0 0 -4 -1 1 2 2 1 1
0 -0 -1 -0 -0 -1 -1 -1 -1 -1 -1 -2 -2 -1 -1 -2 -3 -1 -1 -1 -1 -2 -3 0 -1 -0 -1 -0 -1 -2 -1 -0 2 3 1 2 -2 -1 1 2 1 -0 1
-0 -1 -1 -0 -1 -1 -1 -1 -2 -2 -1 -2 -1 -2 -1 -1 0 -1 -0 -0 -1 -3 -1 -2 -1 1 1 2 0 3 -1 -2 1 -1 -1 -1 -1 -2 -0 -1 1 -1 -0
-1 -1 -1 -1 -1 -1 -1 -1 -1 -0 -1 -1 -1 -1 -3 -1 -2 -2 -1 -1 -1 -3 -0 2 2 1 -0 -0 -1 -3 -2 -3 -3 -0 -3 -7 -3 -4 1 1 0 -4 -1
Height
1521 1519 1516 1513 1511 1508 1506 1503 1501 1499 1498 1496 1495 1492 1491 1490 1491 1490 1489 1490 1491 1493 1494 1495 1496 1498 1499 1501 1503 1504 1506 1508 1510 1513 1515 1518 1520 1523 1526 1528 1531 1533 1535
1518 1516 1513 1510 1507 1505 1501 1498 1494 1493 1491 1489 1487 1485 1484 1483 1482 1482 1481 1480 1481 1483 1485 1486 1488 1489 1491 1493 1495 1497 1499 1501 1503 1506 1508 1511 1514 1516 1519 1522 1525 1528 1530
1516 1514 1512 1509 1505 1502 1500 1495 1491 1487 1485 1482 1479 1477 1475 1475 1475 1473 1472 1472 1473 1473 1474 1476 1478 1480 1482 1484 1486 1488 1490 1493 1495 1498 1501 1504 1506 1509 1512 1515 1518 1522 1524
1515 1512 1509 1507 1503 1500 1496 1492 1489 1484 1479 1475 1473 1471 1469 1467 1465 1464 1464 1463 1464 1465 1465 1466 1468 1470 1473 1475 1477 1480 1482 1484 1487 1489 1492 1495 1498 1501 1504 1507 1510 1514 1517
1514 1511 1509 1506 1503 1499 1494 1492 1486 1482 1476 1471 1466 1464 1463 1460 1458 1457 1456 1455 1456 1456 1457 1458 1458 1460 1463 1466 1467 1470 1473 1476 1478 1481 1483 1486 1489 1492 1495 1499 1502 1505 1510
1513 1511 1509 1506 1502 1498 1494 1490 1485 1480 1474 1468 1463 1459 1457 1456 1455 1454 1454 1453 1452 1451 1451 1451 1451 1452 1454 1457 1458 1460 1463 1466 1469 1472 1474 1476 1479 1482 1486 1491 1495 1499 1503
1512 1511 1508 1505 1501 1498 1494 1490 1486 1479 1473 1466 1460 1456 1455 1456 1455 1453 1453 1452 1451 1451 1450 1448 1448 1447 1449 1448 1451 1450 1453 1457 1460 1463 1465 1467 1469 1473 1478 1482 1487 1492 1498
1511 1509 1507 1504 1500 1497 1493 1489 1484 1479 1474 1468 1463 1459 1457 1457 1455 1452 1452 1450 1450 1449 1448 1448 1446 1445 1445 1444 1442 1443 1442 1446 1450 1452 1456 1458 1461 1463 1467 1473 1479 1484 1491
1511 1508 1505 1504 1500 1496 1492 1487 1484 1480 1475 1471 1467 1467 1462 1460 1454 1452 1451 1450 1448 1447 1446 1444 1443 1442 1441 1440 1437 1438 1437 1437 1441 1444 1445 1448 1451 1453 1457 1461 1466 1470 1475
1509 1507 1505 1503 1500 1496 1492 1488 1483 1480 1476 1472 1468 1467 1465 1462 1459 1452 1449 1448 1446 1444 1442 1441 1440 1438 1436 1436 1433 1432 1433 1431 1431 1434 1436 1439 1442 1444 1449 1454 1459 1463 1467
1510 1507 1505 1502 1499 1496 1493 1490 1484 1481 1477 1473 1468 1466 1464 1463 1461 1459 1448 1445 1442 1442 1440 1438 1437 1434 1432 1431 1429 1428 1429 1428 1426 1426 1428 1431 1432 1435 1439 1446 1418 1442 1457
1508 1505 1503 1501 1499 1496 1493 1489 1486 1482 1478 1476 1471 1467 1465 1464 1462 1458 1452 1446 1442 1441 1440 1436 1434 1432 1430 1427 1426 1425 1425 1424 1422 1421 1422 1423 1424 1427 1434 1437 1441 1443 1457
1507 1504 1503 1502 1498 1496 1493 1491 1487 1483 1480 1476 1472 1468 1464 1461 1458 1457 1453 1449 1445 1440 1440 1435 1434 1430 1429 1426 1423 1422 1422 1419 1418 1417 1416 1418 1417 1418 1424 1430 1432 1436 1441
1506 1504 1503 1502 1500 1497 1495 1492 1489 1485 1481 1478 1474 1470 1466 1461 1458 1455 1452 1450 1445 1443 1440 1437 1435 1432 1429 1425 1423 1421 1420 1416 1415 1414 1411 1411 1411 1412 1416 1420 1425 1430 1434
1507 1506 1505 1503 1501 1498 1496 1493 1490 1486 1482 1479 1476 1472 1468 1463 1459 1455 1452 1449 1448 1445 1441 1438 1437 1434 1431 1427 1423 1421 1419 1415 1414 1410 1409 1406 1407 1407 1408 1411 1416 1419 1425
1508 1507 1506 1504 1501 1500 1497 1494 1491 1487 1484 1481 1478 1474 1470 1466 1461 1457 1453 1451 1448 1446 1446 1443 1439 1436 1432 1428 1427 1423 1420 1417 1412 1409 1407 1403 1402 1402 1403 1406 1408 1411 1416
1508 1508 1506 1505 1502 1500 1498 1495 1492 1489 1486 1483 1480 1476 1472 1468 1464 1459 1456 1453 1451 1449 1447 1445 1441 1438 1435 1431 1428 1426 1422 1418 1413 1410 1408 1405 1402 1400 1400 1400 1402 1404 1409
1508 1508 1507 1505 1503 1501 1498 1496 1494 1491 1489 1485 1482 1479 1475 1471 1466 1462 1459 1456 1453 1451 1450 1447 1444 1441 1438 1434 1432 1429 1425 1422 1418 1415 1411 1409 1405 1401 1398 1399 1398 1397 1400
1509 1508 1507 1505 1503 1501 1500 1498 1495 1493 1491 1488 1485 1481 1478 1475 1470 1466 1463 1459 1456 1454 1452 1449 1447 1444 1441 1438 1435 1432 1428 1426 1423 1420 1417 1413 1408 1405 1404 1403 1395 1395 1398
1509 1509 1507 1506 1504 1503 1501 1500 1498 1496 1493 1491 1488 1484 1481 1477 1474 1471 1467 1463 1460 1457 1454 1451 1447 1445 1443 1440 1437 1434 1431 1427 1425 1422 1420 1417 1415 1410 1409 1406 1400 1399 1403
1509 1508 1508 1507 1506 1505 1503 1501 1500 1498 1495 1493 1490 1486 1483 1481 1477 1474 1470 1467 1464 1460 1456 1453 1450 1447 1443 1440 1437 1436 1433 1431 1429 1426 1423 1420 1418 1416 1412 1408 1405 1405 1401
1509 1509 1508 1508 1507 1505 1504 1503 1501 1500 1497 1495 1492 1489 1487 1484 1480 1477 1474 1471 1467 1463 1459 1456 1453 1449 1447 1444 1441 1439 1436 1433 1432 1429 1427 1424 1421 1419 1416 1414 1413 1411 1410
1509 1509 1509 1508 1507 1506 1505 1504 1502 1501 1499 1496 1494 1492 1489 1486 1483 1480 1477 1474 1470 1466 1463 1460 1456 1453 1450 1447 1444 1442 1439 1437 1435 1432 1429 1428 1424 1422 1420 1418 1415 1414 1411
1509 1509 1509 1509 1508 1507 1506 1505 1504 1502 1500 1498 1496 1494 1491 1489 1486 1483 1480 1477 1473 1469 1465 1462 1460 1457 1454 1451 1447 1445 1442 1440 1438 1434 1430 1429 1426 1425 1423 1420 1417 1414 1412
1508 1509 1509 1509 1508 1507 1507 1506 1505 1503 1502 1500 1498 1496 1494 1491 1488 1485 1482 1478 1475 1471 1469 1466 1463 1460 1457 1454 1450 1447 1443 1441 1439 1436 1432 1430 1428 1425 1425 1422 1418 1416 1414
1507 1508 1508 1508 1508 1508 1507 1506 1505 1504 1502 1501 1499 1498 1495 1492 1489 1486 1483 1480 1477 1474 1472 1469 1466 1462 1459 1455 1452 1448 1445 1443 1440 1439 1436 1433 1430 1427 1428 1423 1419 1418 1416